Погода в Нурме

Россия / Санкт-Петербург и Ленинградская область     59°33′38″N   31°00′42″E
темп.,
°C
ветер,
м/с
пор.,
м/с
влажн.,
%
обл.,
%
осадки,
мм/ч
давл.,
гПа
погр.,
м
6 августа, пт
пт600:00+13св1284100 0.0 101570
03:00+11ссв129299 0.0 101532
06:00+13св278696 0.0 1014328
09:00+15св487834 0.0 1014676
12:00+18всв575783 0.0 10141511
15:00+15св5773100 0.1 10131001
18:00+13св4984100 0.1 1013656
21:00+14св4985100 0.1 1012591
7 августа, сб
сб700:00+13св41193100 0.0 1012456
03:00+13всв41292100 0.0 1011511
06:00+13всв51293100 0.0 1010530
09:00+14всв51395100 0.4 1008660
12:00+15всв51298100 5.3 1008693
15:00+15в41299100 15.0 1007626
18:00+16в41099100 1.8 1006622
21:00+16в3899100 1.8 1006333
8 августа, вс
вс800:00+17вюв3698100 0.0 1007305
03:00+16ююв269999 0.1 1008222
06:00+13ю2797100 0.0 1009195
09:00+15ююз269395 0.0 1010329
12:00+19ююз336752 0.0 1011908
15:00+20зюз346275 0.2 1012947
18:00+19ююз23675 0.0 1013460
21:00+15юв2388100 0.0 101449
9 августа, пн
пн900:00+14ююв2493100 0.0 101483
03:00+14ююв249762 0.0 101586
06:00+15юв269537 0.0 1014138
09:00+19юв3108064 0.0 1013415
12:00+24ю585650 0.1 10131194
15:00+23ююз476958 0.4 10141384
18:00+20ююз3878100 0.1 1015637
21:00+17ю27935 0.1 1016186
10 августа, вт
вт1000:00+15юз269812 0.0 1016159
03:00+14ююз2398100 0.0 101765
06:00+14ююз25961 0.0 1017108
09:00+19юз247033 0.0 1018499
12:00+23ююз3450100 0.0 10181536
15:00+24ююз2344100 0.0 10181971
18:00+23ю125396 0.0 1017745
21:00+19сз127484 0.0 101741